« Back
NWS Peachtree City, Ga » Text Product » GA Regional Weather Roundup


Printer-friendly Version
Current Version              Previous Versions:   1  2  3  4  5  6  7  8  9  

Regional Weather Roundup

761
ASUS42 KFFC 220603
RWRGA
WEATHER ROUNDUP FOR GEORGIA
NATIONAL WEATHER SERVICE PEACHTREE CITY GA
100 AM EST SAT NOV 22 2014

NOTE: "FAIR" INDICATES FEW OR NO CLOUDS BELOW 12,000 FEET WITH NO
SIGNIFICANT WEATHER AND/OR OBSTRUCTIONS TO VISIBILITY.

* = USE WITH CAUTION. THE STATIONS MARKED WITH AN ASTERISK MAY NOT
REPORT WEATHER SUCH AS PRECIPITATION, FOG, OR THUNDER AND ARE NOT
QUALITY CONTROLLED BY NWS.

THE REMARK "TC" DENOTES TEMPERATURE READING IN DEGREES CELSIUS.

GAZ001>058-220700-
NORTH GEORGIA

CITY           SKY/WX    TMP DP  RH WIND       PRES   REMARKS
ATLANTA        CLEAR     45  31  58 E6        30.41S
6HR MIN TEMP:  44; 6HR MAX TEMP:  57;

ATHENS         CLEAR     39  29  67 E8        30.45R WCI  33
6HR MIN TEMP:  38; 6HR MAX TEMP:  46;

CHAMBLEE       CLEAR     39  31  72 CALM      30.42S
6HR MIN TEMP:  35; 6HR MAX TEMP:  47;

PEACHTREE CITY CLEAR     33  31  92 CALM      30.41S
6HR MIN TEMP:  33; 6HR MAX TEMP:  46;

ROME           CLEAR     32  28  85 N3        30.42S
6HR MIN TEMP:  32; 6HR MAX TEMP:  47;

WEST ATLANTA   CLEAR     34  31  88 CALM      30.41F
6HR MIN TEMP:  34; 6HR MAX TEMP:  48;

GAINESVILLE    CLEAR     44  26  49 E9        30.45S
6HR MIN TEMP:  43; 6HR MAX TEMP:  53;

CARTERSVILLE   CLEAR     30  27  88 CALM      30.42F
6HR MIN TEMP:  30; 6HR MAX TEMP:  42;



CITY           SKY/WX    TMP DP  RH WIND       PRES   REMARKS
DALTON*        CLEAR     30  28  93 CALM      30.43S
$$

GAZ059>098-102>109-220700-
CENTRAL GEORGIA

CITY           SKY/WX    TMP DP  RH WIND       PRES   REMARKS
AUGUSTA-BUSH   CLEAR     33  27  78 CALM      30.48R
6HR MIN TEMP:  32; 6HR MAX TEMP:  46;

AUGUSTA-DANIEL CLEAR     48  30  49 E7        30.47S
6HR MIN TEMP:  47; 6HR MAX TEMP:  57;

COLUMBUS       CLEAR     44  37  76 CALM      30.38S
6HR MIN TEMP:  41; 6HR MAX TEMP:  56;

MACON          CLEAR     35  34  96 CALM      30.42R
6HR MIN TEMP:  34; 6HR MAX TEMP:  50;



CITY           SKY/WX    TMP DP  RH WIND       PRES   REMARKS
LAGRANGE*      CLEAR     38  37  93 CALM      30.39S
SYLVANIA*      CLEAR     45  40  84 E5        30.45S
MILLEDGEVILLE* CLEAR     46  39  76 E3        30.44R
$$

GAZ099>101-110>166-220700-
SOUTH GEORGIA

CITY           SKY/WX    TMP DP  RH WIND       PRES   REMARKS
SAVANNAH       CLEAR     50  43  77 NE9       30.43S
6HR MIN TEMP:  48; 6HR MAX TEMP:  55;

VALDOSTA       CLEAR     49  41  74 NE6       30.35S
6HR MIN TEMP:  48; 6HR MAX TEMP:  56;

ALMA           CLEAR     47  41  80 NE3       30.38S
6HR MIN TEMP:  38; 6HR MAX TEMP:  53;

ST SIMONS      CLEAR     59  50  72 NE10      30.36S
6HR MIN TEMP:  54; 6HR MAX TEMP:  59;

ALBANY         CLEAR     41  36  82 CALM      30.39F
BRUNSWICK        N/A     55  48  76 N6        30.37S


CITY           SKY/WX    TMP DP  RH WIND       PRES   REMARKS
BAINBRIDGE*    PTCLDY    46  41  81 E5        30.35F
MOULTRIE*      CLEAR     48  41  76 CALM      30.37F
VIDALIA*       CLEAR     45  43  93 E5        30.42S
WAYCROSS*      CLEAR     50  45  84 NE3       30.38R
DOUGLAS*       CLEAR     48  39  71 NE8       30.40R
$$



USA.gov is the U.S. government's official web portal to all federal, state and local government web resources and services.